Regional Weather Roundup
Issued by NWS

Home | Current Version | Previous Version | Text Only | Print | Product List | Glossary Off
Versions: 1 2 3 4 5 6 7 8 9 10 11 12 13 14 15 16 17 18 19 20 21 22 23 24 25 26 27 28 29 30 31 32 33 34 35 36 37 38 39 40 41 42 43 44 45 46 47 48 49 50

000
ASUS44 KMEG 201900
RWRTN
TENNESSEE HOURLY STATE WEATHER ROUNDUP
NATIONAL WEATHER SERVICE MEMPHIS TN
200 PM CDT SAT SEP 20 2014

TNZ002-004-019-021-049-052-054-088>092-202000-
WEST TENNESSEE

CITY           SKY/WX    TMP DP  RH WIND       PRES   REMARKS
MEMPHIS INTL   MOSUNNY   89  67  47 VRB6      30.03F HX  92
NWS MEMPHIS      N/A     86 N/A N/A MISG        N/A
JACKSON        MOSUNNY   84  68  58 SE3       30.05F
DYERSBURG      MOSUNNY   86  63  45 W7        30.04F
UNION CITY     MOSUNNY   84  70  61 SW5       30.02F
PARIS          MOSUNNY   82  66  57 SW10      30.05F
SAVANNAH       SUNNY     84  66  54 S5        30.05F
$$

TNZ008-025-027-028-033-062-065-066-202000-
NORTH MIDDLE TENNESSEE

CITY           SKY/WX    TMP DP  RH WIND       PRES   REMARKS
NASHVILLE      MOSUNNY   87  64  46 W8        30.06F
CLARKSVILLE    MOSUNNY   85  67  54 SW12      30.04F
COOKEVILLE     MOSUNNY   84  64  51 SW5       30.09F
CROSSVILLE     MOSUNNY   80  59  48 VRB3      30.13F
$$

TNZ061-075-076-078-094-096-097-202000-
SOUTH MIDDLE TENNESSEE

CITY           SKY/WX    TMP DP  RH WIND       PRES   REMARKS
SHELBYVILLE    SUNNY     88  64  45 W6        30.08F
$$

TNZ017-018-042-046-047-202000-
NORTHEAST TENNESSEE

CITY           SKY/WX    TMP DP  RH WIND       PRES   REMARKS
TRI CITIES     MOSUNNY   81  51  35 W7        30.12F
ELIZABETHTON   CLEAR     81  54  39 CALM      30.12F
$$

TNZ012-013-036-069-073-074-202000-
CENTRAL EAST TENNESSEE

CITY           SKY/WX    TMP DP  RH WIND       PRES   REMARKS
KNOXVILLE      MOSUNNY   84  58  40 CALM      30.08F
OAK RIDGE      SUNNY     83  59  44 CALM      30.10F
GATLINBURG     CLEAR     82  57  42 NW5       30.08F
$$

TNZ083-085-099-202000-
SOUTHEAST TENNESSEE

CITY           SKY/WX    TMP DP  RH WIND       PRES   REMARKS
CHATTANOOGA    MOSUNNY   83  61  47 NW5       30.09F
$$

SKY/WX REPORTED AS FAIR MEANS FEW OR NO CLOUDS BELOW
12 THOUSAND FEET.



USA.gov is the U.S. government's official web portal to all federal, state and local government web resources and services.